Flag for Papua New Guinea Weather past 2 weeks in Lae, Papua New Guinea

Now
82 °F

Partly cloudy.


Feels Like: 88 °F
Forecast: 75 / 93 °F
Wind: 2 mph from North

Location: Moresby

Current Time: Jan 28, 2015 at 11:01:23 PM

Latest Report: Jan 28, 2015 at 10:00 PM


Visibility: N/A

Pressure: 29.71 "Hg

Humidity: 74%

Dew point: 73 °F

Location of LaeLocation

Historic Weather in Lae — Graph

°F

Lae temperature yesterday

Maximum temperature yesterday: 91 °F (at 1:00 PM)
Minimum temperature yesterday: 77 °F (at 2:00 AM)
Average temperature yesterday: 86 °F

Past Weeks' High & Low Weather Summary

 TemperatureHumidityPressure
High93 °F (Jan 21, 1:00 PM)100% (Jan 15, 3:00 AM)29.89 "Hg (Jan 15, 3:00 AM)
Low73 °F (Jan 15, 6:00 AM)44% (Jan 24, 2:00 PM)29.56 "Hg (Jan 28, 4:00 PM)
Average83 °F76%29.77 "Hg
* Reported Jan 13 10:00 PM — Jan 28 10:00 PM, Lae, Weather by CustomWeather, © 2014

Note: Actual official high and low records may vary slightly from our data, if they occured in-between our weather recording intervals... More about our weather records

Advertising

Lae weather history for previous 24 hours

 ConditionsComfort  
Time TempWeatherWind HumidityBarometerVisibility
10:00 PM
Jan 28
82 °FPartly cloudy.2 mph74%29.71 "HgN/A
9:00 PM86 °FPartly cloudy.6 mph62%29.71 "HgN/A
8:00 PM86 °FPartly cloudy.9 mph66%29.68 "HgN/A
7:00 PM86 °FPassing clouds.9 mph66%29.65 "HgN/A
6:00 PM88 °FScattered clouds.16 mph62%29.62 "HgN/A
5:00 PM91 °FScattered clouds.20 mph46%29.59 "HgN/A
4:00 PM91 °FScattered clouds.18 mph46%29.56 "HgN/A
3:00 PM91 °FBroken clouds.20 mph44%29.59 "HgN/A
2:00 PM91 °FBroken clouds.20 mph46%29.65 "HgN/A
1:00 PM90 °FBroken clouds.18 mph49%29.65 "HgN/A
12:00 PM90 °FPartly sunny.18 mph49%29.68 "HgN/A
11:00 AM86 °FPartly sunny.17 mph66%29.71 "HgN/A
7:00 AM75 °FMore clouds than sun.12 mph94%29.68 "HgN/A
6:00 AM75 °FMostly cloudy.12 mph94%29.68 "HgN/A
5:00 AM75 °FLight rain. Overcast.15 mph94%29.71 "HgN/A
3:00 AM79 °FPassing clouds.12 mph84%29.68 "HgN/A
2:00 AM77 °FPassing clouds.2 mph89%29.65 "HgN/A
1:00 AM79 °FFog.N/A89%29.68 "HgN/A
12:00 AM81 °FOvercast.2 mph84%29.68 "HgN/A
11:00 PM
Jan 27
81 °FOvercast.No wind79%29.68 "HgN/A
Weather by CustomWeather, © 2014

See weather overviewHow to use our weather pages